SCP
4 4 3 3 3 3 2 3 4 4 3 3 3 3 3 3 3 2 2 2 2 2 2 1 1 2 1 1 1 2 2 1 1 1 1 1 1 1 1 1 1 1 1
4 4 4 4 3 3 3 3 4 4 4 4 4 4 3 3 3 3 3 2 2 2 2 2 2 2 1 1 2 2 2 1 1 1 1 1 1 1 1 1 1 1 1
5 5 5 4 4 5 5 4 4 4 4 5 5 5 4 4 4 4 3 3 2 2 3 2 2 2 2 2 2 2 2 1 1 1 1 1 1 1 1 0 0 0 0
6 6 6 6 7 7 6 5 5 5 5 6 6 5 5 5 5 5 4 4 3 3 3 2 2 2 2 2 2 2 1 1 1 1 1 1 1 1 1 0 0 0 0
7 7 7 9 10 8 6 5 6 6 6 7 6 6 5 5 5 5 5 4 4 4 3 2 1 1 1 1 1 1 1 1 1 1 1 1 1 1 1 1 0 1 1
8 8 9 11 11 8 6 6 7 7 7 7 7 7 6 5 4 5 6 6 5 4 3 2 1 1 1 0 0 0 1 1 1 1 1 1 1 1 1 1 1 1 1
10 10 10 10 8 6 5 6 7 8 8 8 8 8 8 7 4 4 5 6 6 4 3 2 1 0 0 0 0 0 0 0 1 1 1 1 1 1 1 1 1 1 1
9 8 7 7 6 5 4 5 7 8 9 9 10 10 10 8 4 2 3 5 5 4 3 2 1 1 0 0 0 0 0 0 0 1 1 1 1 1 1 1 1 0 0
6 6 5 5 5 5 4 5 7 9 10 11 11 11 12 9 4 1 1 3 4 4 2 2 1 1 1 0 1 1 1 0 0 0 0 1 1 1 1 1 1 1 1
5 5 5 5 5 5 5 6 8 10 11 11 12 12 11 9 4 1 1 3 3 3 2 1 1 1 0 0 1 1 1 1 1 0 0 0 1 1 1 1 1 1 1
6 6 6 6 6 6 6 7 9 10 11 11 11 11 10 7 3 1 0 1 2 2 2 1 1 0 0 0 0 1 1 1 1 1 0 0 1 1 1 2 2 1 1
6 6 7 7 7 7 7 7 9 9 9 9 9 9 8 6 2 1 0 0 1 1 1 1 1 0 0 0 0 0 1 1 1 1 0 0 1 1 1 1 1 1 1
8 8 8 9 9 8 6 5 6 7 7 7 7 7 6 4 2 1 0 0 0 1 1 1 0 0 0 0 0 0 0 0 1 1 1 1 1 1 1 1 1 1 1
9 9 9 9 10 8 6 4 4 4 5 6 6 5 4 3 2 1 0 0 0 0 0 0 0 0 0 0 0 0 0 0 0 1 1 1 1 1 1 1 1 1 0
10 9 9 9 10 8 6 4 4 3 3 3 3 3 2 2 1 0 0 0 0 0 0 0 0 0 0 0 0 0 0 0 1 1 1 1 1 1 1 1 1 1 0
9 9 8 8 8 7 5 4 3 1 1 1 1 1 1 0 0 0 0 0 0 0 0 1 1 1 1 1 1 1 1 1 1 1 1 1 1 1 1 1 1 1 1
8 7 7 6 6 5 4 4 3 2 1 0 0 0 0 0 0 0 0 0 0 0 0 0 1 1 1 1 1 1 1 1 1 1 1 1 1 1 1 1 1 1 1
6 6 5 5 4 4 4 4 3 3 2 1 0 0 0 0 0 0 0 0 0 0 0 0 1 1 1 1 2 1 1 1 1 1 1 1 1 1 1 1 1 1 1
5 5 5 5 4 4 3 3 3 2 2 1 0 0 0 0 0 0 0 0 0 0 0 0 1 1 1 1 2 2 2 1 1 1 2 2 2 2 2 2 2 1 1
5 4 4 4 4 3 2 2 2 1 1 1 0 0 0 0 0 0 0 0 0 0 0 0 1 1 1 1 2 2 2 1 1 1 1 1 2 2 2 2 1 1 1
4 4 4 4 4 3 2 2 1 1 1 1 0 0 0 0 0 0 0 0 0 0 0 0 1 1 1 1 2 2 1 1 1 1 1 1 1 1 1 1 1 1 1
4 4 3 3 4 3 2 2 2 1 1 1 0 0 0 0 0 0 0 0 0 0 0 0 0 0 0 1 2 2 1 1 1 1 1 1 1 1 1 1 1 1 1
4 3 3 3 3 3 2 2 2 1 1 1 0 0 0 0 0 0 0 0 0 0 0 0 0 0 0 0 1 1 2 1 2 2 2 1 1 1 1 1 1 1 0
4 3 3 2 2 2 2 1 1 1 1 1 1 0 0 0 0 0 0 0 0 0 0 0 0 0 0 0 0 1 1 1 2 2 2 1 1 1 1 1 1 0 0
4 4 3 3 2 1 1 1 1 1 1 1 1 1 0 0 0 0 0 0 0 0 0 0 0 0 0 0 0 0 1 1 1 1 1 1 1 1 1 0 0 0 0
5 4 4 3 2 1 1 1 1 1 1 1 1 1 0 0 0 0 0 0 0 0 0 0 0 0 0 0 0 0 0 0 0 0 1 1 1 1 0 0 0 0 0
Wind_Speed
5 4 3 3 3 3 2 2 3 3 3 3 3 3 3 3 3 3 3 4 4 3 3 3 3 2 2 2 2 1 1 2 3 2 2 3 4 4 4 4 4 5 6
5 5 4 3 4 4 3 4 4 3 3 3 3 3 3 4 4 4 4 4 4 4 4 5 5 4 4 3 2 2 2 2 3 3 2 2 3 3 3 4 4 5 5
7 6 5 4 5 4 4 4 4 4 4 4 4 4 4 4 4 4 4 4 5 5 5 6 6 6 5 4 3 3 3 3 3 4 3 2 2 2 3 4 5 4 6
7 7 6 5 5 4 4 4 4 4 4 4 4 5 5 5 5 4 4 5 5 5 6 6 6 6 5 4 4 4 4 3 3 4 3 3 3 2 2 3 4 3 4
7 7 6 6 5 5 5 5 4 5 6 5 5 5 5 5 6 5 4 5 5 5 5 6 7 9 11 7 5 5 4 4 4 4 4 3 3 2 2 1 3 3 4
7 7 6 6 5 5 5 5 5 5 5 5 6 6 7 6 8 9 6 4 4 5 4 4 6 8 9 10 11 10 8 6 4 4 4 3 3 2 1 2 2 2 2
7 7 7 7 6 5 6 6 6 5 5 6 6 7 7 7 9 9 8 4 5 5 5 5 5 7 7 5 7 8 9 10 8 5 4 3 3 2 2 2 2 2 2
8 7 7 7 7 6 6 6 5 4 5 5 5 6 5 7 9 8 7 4 6 6 6 6 6 6 7 6 5 6 6 6 6 5 4 4 4 2 1 1 2 3 3
8 7 7 7 7 6 6 6 5 4 5 5 5 5 5 5 8 8 6 3 5 6 7 7 6 6 9 7 5 4 4 4 6 7 6 5 5 5 4 2 2 2 2
8 7 7 6 6 6 6 6 5 4 5 5 5 5 5 4 7 9 7 2 4 5 5 6 9 7 8 7 4 3 3 2 2 3 3 3 3 3 4 3 2 1 2
8 8 7 6 6 6 6 5 5 4 4 5 5 4 4 4 5 8 8 3 2 4 5 4 4 6 7 7 5 3 2 2 0 2 2 3 3 3 3 3 3 2 2
8 8 8 7 6 6 6 5 4 5 5 4 4 4 4 3 4 5 7 7 5 4 4 4 3 3 4 4 3 4 5 3 1 1 2 3 3 2 2 2 2 2 2
8 8 7 6 5 6 6 5 5 4 4 4 4 4 4 4 3 4 5 6 7 4 3 4 3 1 1 1 1 3 3 2 1 2 2 2 2 2 2 1 2 2 2
8 7 6 6 6 5 4 4 3 3 3 3 3 3 4 4 3 2 2 3 4 3 2 2 3 2 3 2 2 1 0 1 1 1 1 1 1 1 1 1 1 1 2
8 7 6 6 5 4 3 3 2 3 2 1 1 3 3 4 2 2 2 2 1 2 1 2 2 2 2 2 1 1 1 1 1 1 1 1 1 1 1 1 1 1 1
8 7 6 6 6 5 5 5 10 6 6 8 7 5 5 6 7 6 5 5 4 3 1 1 1 1 1 1 1 1 2 2 1 1 1 1 1 1 1 1 1 0 0
7 7 6 6 6 6 6 6 5 4 7 8 8 8 8 8 6 5 3 3 2 1 1 2 1 0 0 1 1 1 2 1 1 1 1 1 1 1 1 1 0 0 0
7 6 6 5 6 6 6 6 5 6 5 3 4 5 7 6 5 3 2 0 1 2 3 2 1 0 1 1 1 1 1 1 1 1 1 1 1 1 1 1 1 1 1
7 6 5 5 5 5 5 6 5 6 5 6 5 4 4 4 3 2 2 2 3 3 3 2 1 1 1 1 1 1 1 1 1 1 1 1 1 1 1 1 1 1 1
5 6 6 5 5 5 6 6 5 6 5 5 6 6 5 5 4 4 4 4 4 2 2 1 1 1 1 1 0 0 0 1 0 1 1 1 1 1 2 2 1 1 1
6 6 7 6 5 5 5 6 5 5 5 5 5 6 8 6 6 5 5 4 3 3 1 1 1 1 2 1 1 0 0 0 1 1 1 1 2 2 2 2 1 2 1
6 6 6 5 5 5 4 4 5 5 5 6 5 6 9 6 5 4 4 4 3 2 1 1 1 1 1 1 1 0 0 0 0 1 1 2 1 2 2 2 2 2 2
5 6 6 5 4 5 5 5 5 5 5 6 6 6 6 6 4 3 3 3 3 2 2 2 1 0 1 1 1 0 0 0 1 1 1 2 2 2 2 2 2 3 2
6 6 6 5 5 5 6 5 5 5 5 5 5 5 5 4 3 3 3 3 3 3 3 2 2 2 2 1 1 1 1 2 1 2 2 3 3 2 2 2 3 3 2
5 6 6 6 5 5 5 5 5 5 5 5 5 5 5 5 4 3 3 3 3 3 3 3 2 2 3 3 2 3 3 3 2 2 2 2 3 3 3 3 3 3 3
5 5 5 5 5 4 4 4 5 5 4 5 4 4 4 4 4 3 3 3 3 2 2 2 3 3 3 3 4 5 4 3 1 1 2 3 3 3 3 3 5 4 4
Wind_Direction
138 129 111 114 111 108 104 86 77 65 67 65 56 56 57 47 43 49 52 50 50 40 31 34 24 13 7 1 1 31 79 112 118 90 72 82 79 86 89 89 88 84 80
137 127 115 103 95 90 83 79 77 72 71 71 66 61 62 56 50 49 51 48 48 44 38 37 26 25 21 21 19 35 57 93 113 113 99 87 73 92 101 97 90 90 85
137 131 125 113 102 94 88 82 76 72 67 66 65 61 57 57 56 56 60 57 56 51 45 43 35 31 29 27 36 36 44 71 88 104 99 89 78 79 91 88 86 81 89
142 139 127 116 114 109 98 86 78 78 73 67 66 65 62 56 50 52 67 65 65 61 57 54 45 38 30 24 45 39 50 66 83 94 94 85 71 64 78 90 92 80 78
139 135 129 123 118 109 98 88 79 81 83 74 72 67 63 56 38 30 58 72 65 66 68 72 67 62 54 49 55 46 49 61 73 81 83 78 68 69 56 71 89 94 76
139 137 130 127 121 115 111 103 91 82 79 75 71 65 60 54 30 33 42 61 60 61 61 69 80 68 63 65 68 63 57 65 67 74 75 79 75 72 68 90 99 94 85
140 139 138 135 127 123 113 101 96 94 88 80 77 77 71 47 32 31 29 63 70 63 58 50 57 60 57 59 69 71 61 60 64 77 82 73 80 75 89 91 84 95 100
142 140 138 134 127 121 114 110 106 102 94 88 83 85 80 50 31 27 17 84 79 69 61 58 61 50 41 41 70 73 68 57 58 71 74 70 65 55 88 120 129 115 102
144 140 136 132 130 129 123 119 116 112 108 103 95 91 83 51 25 21 14 97 91 81 72 59 58 55 29 38 68 80 85 83 72 78 88 89 78 63 60 68 72 112 120
146 140 133 135 139 137 133 129 125 122 120 113 104 97 90 68 33 27 15 89 107 105 96 78 60 51 36 40 57 63 69 63 80 100 98 93 95 84 68 57 44 66 99
141 138 135 138 138 137 134 133 138 134 122 114 114 107 93 78 62 43 34 39 74 98 100 91 64 46 42 36 40 50 41 0 353 117 122 113 95 79 73 64 45 48 63
139 141 140 145 148 142 139 140 141 138 138 140 138 132 116 95 68 62 54 51 56 79 87 95 96 69 46 29 30 10 357 354 1 79 86 85 87 85 87 90 84 67 85
144 144 145 148 140 143 149 151 155 166 168 166 164 152 136 125 105 87 81 73 73 79 86 108 119 125 350 304 318 338 350 354 16 65 77 84 105 123 122 122 125 115 88
147 146 148 149 146 144 151 161 164 177 178 167 158 145 136 137 133 129 136 130 124 123 132 158 190 233 266 289 283 261 199 21 30 55 72 89 115 119 117 119 127 152 141
152 153 155 155 150 132 109 59 86 60 43 123 129 129 145 137 116 95 94 85 87 88 172 209 197 194 205 207 189 127 92 80 26 25 37 36 56 85 102 93 66 29 62
160 165 168 164 157 151 137 102 51 64 75 78 75 88 94 112 126 102 82 68 59 56 32 244 213 214 189 152 130 119 97 58 15 18 29 23 17 37 73 99 106 107 85
171 175 174 171 168 166 161 155 141 93 67 71 82 94 113 129 122 112 90 42 15 59 269 265 250 194 49 72 83 86 93 88 8 345 8 359 350 358 22 30 43 331 299
179 179 177 175 175 175 174 173 167 164 158 134 100 111 128 136 136 135 122 57 243 218 236 244 242 158 108 55 60 62 79 91 54 355 20 0 351 346 350 344 1 8 335
185 181 181 176 179 179 177 175 176 172 165 154 147 146 158 153 160 184 172 227 242 237 218 212 209 116 91 89 79 66 63 93 61 334 9 337 334 322 320 321 333 20 304
185 177 180 181 184 180 180 180 175 170 170 167 167 165 168 183 194 194 206 224 234 236 223 174 130 110 106 93 113 156 267 117 116 325 347 318 316 314 307 309 315 301 260
182 176 184 194 193 185 186 184 176 176 179 178 174 166 172 193 204 200 196 202 216 221 197 158 167 170 159 171 184 206 298 79 76 4 328 316 316 311 302 299 304 317 323
183 179 186 196 191 184 186 183 178 181 186 180 167 169 181 207 215 196 195 193 193 192 180 198 232 168 122 136 123 77 323 344 31 351 326 315 310 310 317 323 335 332 324
193 186 189 194 186 171 181 188 187 188 186 182 178 173 184 208 213 197 188 184 174 176 176 175 229 188 131 124 121 131 209 31 17 16 332 320 316 311 314 317 311 309 311
199 190 192 192 192 186 186 189 188 189 186 181 177 176 186 196 202 194 187 184 175 173 172 177 188 171 155 155 135 98 69 62 22 8 347 318 308 310 314 309 302 306 306
206 195 195 197 197 191 185 187 188 186 184 182 182 181 182 184 191 196 192 183 169 179 182 177 183 185 164 147 129 111 104 95 72 359 318 301 302 303 303 306 307 306 302
213 206 199 195 191 185 183 187 185 184 188 190 185 183 183 182 187 194 191 177 172 177 177 163 144 134 131 133 122 124 134 132 115 350 314 300 297 298 305 302 302 299 294